Location: Doverdale
(52.2833°N, 2.2000°W)
Time: 03:27:58
(UTC+00:00)

Cosmos 1992 Rocket - Pass Details

Date: 29 October 2020
Orbit: 759 x 765 km, 74.0° (Epoch: 24 November)

Event Time Altitude Azimuth Distance (km) Brightness Sun altitude
Rises 19:14:07 0° 211° (SSW) 3,209 7.5 -23.3°
Reaches altitude 10° 19:16:29 10° 214° (SSW) 2,287 6.7 -23.7°
Maximum altitude 19:21:40 70° 298° (WNW) 813 4.2 -24.5°
Enters shadow 19:25:34 18° 19° (NNE) 1,806 5.8 -25.0°
